SKY MUSTER 2

Last updated on Mon Jan 25 2021 10:37:15 GMT+0000 (Coordinated Universal Time)

1 41794U 16060B 21025.17473321 -.00000232 00000-0 00000+0 0 9993 2 41794 0.0128 356.0716 0001755 303.3743 32.9372 1.00271896 15823
UTC large
Height (km)
Speed (km/s)
/
Latitude / Longitude
Inclination (degrees)
Orbital Period (minutes)
Azimuth
Elevation
Range (km)
Doppler Factor

Next 0 passes for location: London (51.5072 / 0.1276)

Sorry there are no passes over London.